Location: Aufkirchen
(47.9603°N, 11.3653°E)
Time: 15:19:35
(UTC+02:00)

ISS - Visible Passes

Search period start: 29 March 2017 00:00
Search period end: 08 April 2017 00:00
Orbit: 399 x 409 km, 51.6° (Epoch: 29 March)

Date Brightness Start Highest point End Pass type
(mag) Time Alt. Az. Time Alt. Az. Time Alt. Az.
29 Mar -3.7 21:42:10 10° WSW 21:45:05 69° WSW 21:45:05 69° WSW visible
30 Mar -3.8 20:49:52 10° SW 20:53:04 60° SSE 20:55:19 18° ENE visible
30 Mar -1.5 22:26:28 10° W 22:28:00 24° WNW 22:28:00 24° WNW visible
31 Mar -3.3 21:33:56 10° W 21:37:10 57° NNW 21:38:03 40° NE visible
01 Apr -3.7 20:41:27 10° WSW 20:44:42 78° NNW 20:47:57 10° ENE visible
01 Apr -2.1 22:18:19 10° WNW 22:20:37 33° NW 22:20:37 33° NW visible
02 Apr -2.9 21:25:45 10° W 21:28:55 44° N 21:30:25 25° NE visible
02 Apr -0.6 23:02:31 10° WNW 23:03:04 14° WNW 23:03:04 14° WNW visible
03 Apr -3.1 20:33:11 10° W 20:36:23 52° NNW 20:39:36 10° ENE visible
03 Apr -2.6 22:10:03 10° WNW 22:12:46 41° NNW 22:12:46 41° NNW visible
04 Apr -2.8 21:17:31 10° WNW 21:20:39 41° N 21:22:25 21° ENE visible
04 Apr -1.0 22:54:06 10° WNW 22:55:04 18° WNW 22:55:04 18° WNW visible
05 Apr -2.8 20:24:56 10° W 20:28:04 43° N 20:31:13 10° ENE visible
05 Apr -3.3 22:01:39 10° WNW 22:04:40 54° N 22:04:40 54° N visible
06 Apr -3.0 21:09:09 10° WNW 21:12:18 45° N 21:14:15 20° ENE visible
06 Apr -1.4 22:45:39 10° WNW 22:46:54 21° WNW 22:46:54 21° WNW visible
07 Apr -4.0 21:53:09 10° WNW 21:56:26 84° NNE 21:56:28 84° NE visible
